ARIANE 6 R/B, 60239

Orbit data source: Space-Track

ARIANE 6 R/B, 60239 is space debris in LEO originally from a launch on Tue, 09 Jul 2024 UTC via an ARIANE 62 launch vehicle from the French Guiana (FRGUI). Debris objects in space refer to the collection of defunct objects orbiting the Earth. Examples of debris include non-operational satellites, rocket bodies, and fragments generated from explosions, collisions, or faulty payload assembly.

Loading next visibility...
Identifier
60239, 2024-128E
Orbit
LEO
Country
Flag of FRFR
Related business
Manufacturer
ArianeGroup
Mission
Spacecraft
Bus & Motor
ARI6DP, Unknown motor
Mass
~7,711 kg wet, 1,600 kg dry
Launch date (UTC)
2024-07-09 (2 years ago)
Launch vehicle
ARIANE 62
Launch site
French Guiana (FRGUI)
Object type
Payload
Rocket body
Debris
Shape & HBR
Cyl + Trunc Cone, 7.0 m
Radar Cross Section
72.787 m², Large (>1 m²)

Expand to show TLE details & history
Last TLE update: 4 hours ago

TLE from 4 hours ago
0 ARIANE 6 R/B
1 60239U 24128E   26127.83065588  .00000952  00000-0  90322-4 0  9994
2 60239  62.0131  11.6025 0048253 127.9373 232.6093 15.00309376 99977
Epoch: 2026-05-07T19:56Z
TLE epoch observation values (Epoch: 2026-05-07T19:56:08.668Z)
Latitude
-0°
Longitude
-153.10478°
Altitude
588.163 km
Speed
7.556 km/s
True Right ascension
00h 46m 24s
True Declination
0° 00' 00"
Sunlit
Object was in daylight at epoch
Visualization orbit readout
Latitude
Unknown
Longitude
Unknown
Altitude
Unknown
Speed
Unknown
Apparent Right ascension
Unknown
Apparent Declination
Unknown
Sunlit
N/A
Visualization observer readout
Local Sidereal Time
08:06:32
Azimuth
Unknown
Elevation
Unknown
Doppler factor
Unknown
Orbital elements
Apogee altitude
598.372 km
Perigee altitude
531.368 km
Semi-major axis
6,943.007 km
Eccentricity
0.00483
Inclination
62.0131°
RAAN
11.6025°
Arg. of periapsis
127.9373°
True anomaly
232.17159°
Mean anomaly
232.6093°
Eccentric anomaly
232.39028°
Mean motion
3.75165 °/min
Orbital period
95.96 mins
BSTAR
0.000090322
Loading maneuver chart data...
Computing Atmospheric mass density...
Loading historical data...
Loading historical data...
Loading historical data...
Loading historical data...
Loading historical data...
Loading historical data...
Loading historical data...

Documentation

Showing up to 5 results
|